Simultaneous Nadir Overpasses (SNOs) Predictions

Prediction of SNOs near US between AQUA and NPP Satellite Orbit:

Table of predicted SNOs near US for the next 10.0 days since TLE Epoch: 4/20/2019
Index Date (AQUA) Time (AQUA) AQUA Lat,Lon Date (NPP) Time (NPP) NPP Lat,Lon Distance(km) Time Diff (sec)
1 04/20/2019 09:24:53 20.04,-114.26 04/20/2019 09:16:33 19.28,-114.87 105.86 500
2 04/23/2019 06:31:07 44.74, -65.66 04/23/2019 06:30:37 45.10, -67.63 160.19 30
3 04/23/2019 08:08:33 49.91, -88.38 04/23/2019 08:10:35 50.40, -90.79 180.70 122
4 04/23/2019 09:47:26 49.91,-113.10 04/23/2019 09:52:03 50.51,-116.12 225.15 277
5 04/25/2019 19:06:40 49.97, -92.54 04/25/2019 19:00:53 49.62, -94.36 136.47 347
6 04/25/2019 20:45:33 49.97,-117.26 04/25/2019 20:42:22 49.57,-119.71 181.76 191




NCC Satellite Simultaneous Nadir Overpasses (SNOs) Prediction Service
